XE3JAR Weather Reports


time (UTC)temp
F
wind
direction
speed
knots
gust
knots
rain 1hr
in
rain 24hr
in
rain mn
in
humidity
%
barometer
mb
20260504050711 77 180 0.0 0.0 0.00 0.27 0.00 99 1021.3
20260504040117 75 113 0.0 0.0 0.00 0.27 0.00 99 1021.0
20260504034056 75 248 0.0 0.0 0.00 0.27 0.00 99 1021.0
20260504030500 75 90 0.0 11.3 0.00 0.26 0.00 99 1021.0
20260504024510 77 68 9.6 9.6 0.00 0.26 0.00 99 1020.7
20260504014324 77 203 3.5 15.6 0.00 0.18 0.00 99 1020.3
20260504011823 77 225 9.6 9.6 0.00 0.08 0.00 99 1020.0
20260504010757 79 225 9.6 11.3 0.00 0.08 0.00 99 1020.0
20260503234545 79 315 9.6 19.1 0.00 0.08 0.00 99 1018.6
20260503233538 81 248 19.1 19.1 0.00 0.08 0.00 98 1018.6
20260503233034 81 180 15.6 15.6 0.00 0.08 0.00 97 1018.6
20260503231528 81 338 15.6 25.2 0.00 0.08 0.00 97 1018.6
20260503230010 81 293 15.6 15.6 0.00 0.08 0.00 96 1018.6
20260503214839 82 315 9.6 19.1 0.00 0.08 0.00 92 1019.0
20260503210325 84 23 9.6 21.7 0.00 0.08 0.00 88 1019.0
20260503205240 86 203 6.1 25.2 0.00 0.08 0.00 87 1019.3
20260503204736 86 315 19.1 19.1 0.00 0.08 0.00 87 1019.3
20260503201900 84 293 31.3 31.3 0.00 0.08 0.00 91 1019.6
20260503201412 84 293 11.3 37.4 0.00 0.08 0.00 91 1019.6
20260503200343 84 315 15.6 21.7 0.00 0.07 0.00 88 1019.6
20260503190813 88 270 19.1 19.1 0.00 0.07 0.00 86 1020.3
20260503174355 86 203 6.1 9.6 0.00 0.03 0.00 85 1021.7
20260503150441 84 293 6.1 11.3 0.00 0.03 0.00 88 1021.3